STARLINK-36606

Last updated on Sun Mar 15 2026 00:02:07 GMT+0000 (Coordinated Universal Time)

1 67845U 26033AA 26073.58335648 -.01943982 00000+0 -17627-1 0 9995 2 67845 42.9990 241.4406 0001292 270.5107 285.6007 15.70141942 5458
UTC large
Height (km)
Speed (km/s)
/
Latitude / Longitude
Inclination (degrees)
Orbital Period (minutes)
Azimuth
Elevation
Range (km)
Doppler Factor

Next 0 passes for location: London (51.5072 / 0.1276)

Sorry there are no passes over London.